COSMOS 1275 DEB

Satellite information

Favourite Embed

Satellite Type and Status

DEBRISIN ORBIT

Key statistics

Satellite COSMOS 1275 DEB at a glance.

Uptime

16263

Days in orbit

Revolutions

≈ 14.4

Per day

Orbit

LEO

Low Earth Orbit

Inclination

82.9

Latest

Satellite identification and parameters

Extended collection of information and parameters for COSMOS 1275 DEB.

Object identification

Identified? True

Debris? True

Object name: COSMOS 1275 DEB

International designator: 1981-053FL

Object number (NORAD): 13464

Object ID (CCSDS): 13464

Country: COMMONWEALTH OF INDEPENDENT STATES (CIS)

Current information (Y/N): Y

RCS size: SMALL

Orbital parameters

Period: 99.971 minutes

Inclination: 82.9078 deg

SMA: 7135.237 km

Apoapsis: 776.103 km

Periapsis: 738.101 km

RAAN: 203.9162 deg

Eccentricy: 0.00266297

Argument of periapsis: 267.969 deg

Mean anomaly: 120.6671 deg

Mean motion: 14.40423362 rev/day

Mean motion (dot): 0.00008074 rev/day2

B* drag term: 0.0025254416 1/REarth

Two-line elements (TLE)

Creation date: Dec. 11, 2025, 7:14 p.m.

Reference frame: TEME

Reference center: EARTH

Epoch: Dec. 11, 2025, 1:52 p.m. UTC

TLE line 0: 0 COSMOS 1275 DEB

TLE line 1: 1 13464U 81053FL 25345.57833361 .00008074 00000-0 25254-2 0 9999

TLE line 2: 2 13464 82.9078 203.9162 0026630 267.9690 120.6671 14.40423362229985

Live tracking on map

Real-time ground track for satellite COSMOS 1275 DEB.

In-orbit conjunctions

A list of the most updated potential collisions computed for object COSMOS 1275 DEB.

Target Orbit TCA Probability of collision Miss distance Type
SL-8 R/B LEO 2025-07-10 18:52:32 0.0005103321 661.0 (m) ROCKET BODY
DELTA 1 DEB SSO 2025-04-10 04:15:11 0.0002282532 47.0 (m) DEBRIS
NOAA 17 DEB SSO 2024-12-09 19:43:40 0.000153005 106.0 (m) DEBRIS
CZ-6A DEB LEO 2024-11-05 19:43:50 0.0002921679 55.0 (m) DEBRIS
CZ-6A DEB LEO 2024-10-09 19:29:46 0.0008095976 71.0 (m) DEBRIS

Associated space launch

Navigation satellite providing location information for the Tsiklon-B navigation system

COSMOS 1275 DEB was lifted into orbit during the mission ‘Kosmos-3M | Parus 27’, on board a Kosmos-3M space rocket.

The launch took place on June 4, 1981, 3:41 p.m. from 132/2.

For more information about the launch, click the button.

Launch to space Kosmos-3M | Parus 27
Kosmos-3M | Parus 27

Agency: N/A

Status: Launch Successful

Launch date: June 4, 1981, 3:41 p.m. UTC

Rocket: Kosmos-3M

Launch pad: 132/2

Location: Plesetsk Cosmodrome, Russian Federation

...

Latest news about this satellite

There are no fresh news available about this satellite. Check back as we update our databases every day.


Newsletter sign-up

Weekly statistics, charts and insights to help you stay on top of the space industry.